QPF
0.04 0.02 0.02 0.01 0.01 0.01 0.01 0.01 0.01 0.01 0.02 0.02 0.01 0.02 0.03 0.01 0.02 0.01 0.01 0.01 0.02 0.03 0.04 0.06 0.04 0.05 0.07 0.07 0.08 0.07 0.07 0.06 0.03 0.03 0.04 0.05 0.06 0.05 0.07 0.06 0.03 0.02 0.02
0.02 0.02 0.02 0.02 0.01 0.01 0.01 0.01 0.01 0.01 0.02 0.02 0.01 0.01 0.02 0.01 0.01 0.01 0.01 0.02 0.02 0.02 0.02 0.03 0.03 0.05 0.08 0.08 0.08 0.06 0.07 0.07 0.06 0.05 0.04 0.04 0.06 0.07 0.06 0.06 0.04 0.04 0.04
0.03 0.03 0.02 0.03 0.03 0.03 0.02 0.02 0.02 0.02 0.02 0.02 0.01 0.01 0.03 0.03 0.03 0.02 0.02 0.02 0.02 0.02 0.02 0.03 0.02 0.05 0.07 0.08 0.08 0.08 0.07 0.08 0.08 0.06 0.03 0.03 0.05 0.07 0.08 0.07 0.07 0.07 0.05
0.01 0.02 0.02 0.04 0.04 0.04 0.05 0.05 0.04 0.03 0.03 0.03 0.01 0.01 0.02 0.04 0.04 0.03 0.02 0.02 0.02 0.02 0.02 0.02 0.02 0.04 0.06 0.06 0.07 0.08 0.05 0.05 0.06 0.05 0.03 0.03 0.04 0.06 0.07 0.07 0.07 0.09 0.07
0.01 0.01 0.02 0.02 0.04 0.06 0.08 0.07 0.07 0.06 0.05 0.03 0.02 0.02 0.03 0.05 0.04 0.02 0.02 0.02 0.02 0.01 0.01 0.02 0.02 0.04 0.05 0.04 0.05 0.06 0.04 0.05 0.05 0.05 0.05 0.05 0.05 0.06 0.07 0.10 0.07 0.07 0.07
0.02 0.02 0.02 0.02 0.03 0.03 0.06 0.11 0.08 0.09 0.08 0.06 0.03 0.03 0.05 0.05 0.03 0.02 0.01 0.02 0.02 0.01 0.01 0.02 0.04 0.05 0.04 0.03 0.03 0.03 0.04 0.03 0.03 0.03 0.04 0.06 0.06 0.06 0.08 0.07 0.05 0.06 0.05
0.03 0.02 0.02 0.02 0.02 0.02 0.03 0.05 0.07 0.06 0.07 0.07 0.05 0.04 0.03 0.04 0.03 0.02 0.01 0.01 0.02 0.01 0.02 0.02 0.03 0.04 0.04 0.03 0.02 0.02 0.02 0.02 0.02 0.03 0.04 0.05 0.05 0.06 0.05 0.05 0.05 0.05 0.05
0.02 0.02 0.03 0.02 0.03 0.03 0.04 0.07 0.06 0.05 0.06 0.06 0.06 0.05 0.03 0.03 0.03 0.02 0.03 0.03 0.03 0.03 0.03 0.04 0.04 0.04 0.02 0.02 0.02 0.02 0.02 0.02 0.02 0.02 0.04 0.05 0.05 0.06 0.05 0.05 0.05 0.05 0.05
0.03 0.02 0.01 0.02 0.03 0.03 0.04 0.06 0.09 0.08 0.06 0.07 0.07 0.05 0.04 0.04 0.03 0.03 0.03 0.02 0.03 0.03 0.05 0.06 0.06 0.05 0.02 0.02 0.01 0.02 0.03 0.03 0.04 0.04 0.04 0.04 0.04 0.03 0.04 0.05 0.06 0.06 0.06
0.04 0.03 0.02 0.02 0.05 0.04 0.03 0.04 0.07 0.11 0.11 0.08 0.09 0.08 0.06 0.05 0.04 0.03 0.03 0.02 0.03 0.04 0.04 0.05 0.05 0.04 0.03 0.02 0.02 0.02 0.04 0.05 0.05 0.06 0.04 0.02 0.02 0.02 0.03 0.04 0.04 0.04 0.05
0.06 0.06 0.05 0.04 0.04 0.03 0.03 0.05 0.09 0.11 0.11 0.10 0.09 0.10 0.07 0.05 0.05 0.04 0.04 0.02 0.03 0.03 0.03 0.05 0.05 0.04 0.04 0.04 0.03 0.04 0.04 0.04 0.05 0.04 0.02 0.02 0.02 0.02 0.02 0.03 0.03 0.03 0.05
0.13 0.10 0.07 0.05 0.04 0.03 0.03 0.03 0.05 0.08 0.09 0.07 0.07 0.08 0.08 0.06 0.05 0.02 0.02 0.01 0.01 0.02 0.03 0.05 0.05 0.05 0.05 0.05 0.05 0.04 0.04 0.04 0.03 0.02 0.01 0.02 0.02 0.02 0.03 0.02 0.03 0.04 0.05
0.17 0.16 0.09 0.06 0.05 0.04 0.03 0.03 0.03 0.05 0.06 0.08 0.06 0.06 0.08 0.07 0.05 0.03 0.03 0.03 0.04 0.04 0.04 0.04 0.04 0.05 0.07 0.07 0.07 0.06 0.05 0.05 0.04 0.02 0.02 0.01 0.01 0.01 0.02 0.01 0.02 0.03 0.04
0.15 0.12 0.07 0.06 0.06 0.05 0.04 0.02 0.02 0.03 0.05 0.07 0.09 0.06 0.06 0.06 0.05 0.05 0.04 0.04 0.04 0.04 0.04 0.05 0.06 0.06 0.09 0.10 0.11 0.11 0.09 0.08 0.06 0.04 0.02 0.02 0.01 0.01 0.01 0.01 0.01 0.02 0.03
0.12 0.08 0.07 0.07 0.05 0.04 0.03 0.02 0.01 0.01 0.03 0.07 0.10 0.10 0.07 0.06 0.05 0.05 0.05 0.05 0.04 0.04 0.04 0.04 0.05 0.06 0.10 0.13 0.11 0.10 0.09 0.08 0.06 0.04 0.03 0.02 0.01 0.00 0.01 0.01 0.02 0.02 0.03
0.13 0.08 0.07 0.07 0.07 0.04 0.02 0.01 0.01 0.01 0.02 0.05 0.07 0.08 0.07 0.06 0.06 0.06 0.07 0.07 0.08 0.07 0.06 0.05 0.05 0.08 0.15 0.12 0.08 0.07 0.06 0.06 0.06 0.05 0.04 0.02 0.01 0.01 0.02 0.02 0.03 0.04 0.03
0.12 0.09 0.07 0.07 0.06 0.03 0.02 0.01 0.01 0.01 0.01 0.02 0.05 0.06 0.05 0.05 0.06 0.07 0.08 0.09 0.10 0.10 0.07 0.05 0.06 0.07 0.09 0.10 0.09 0.06 0.05 0.05 0.05 0.05 0.05 0.04 0.02 0.02 0.02 0.02 0.03 0.03 0.02
0.11 0.12 0.11 0.10 0.06 0.04 0.03 0.02 0.02 0.03 0.02 0.02 0.03 0.04 0.04 0.04 0.05 0.07 0.10 0.10 0.08 0.09 0.11 0.11 0.10 0.08 0.05 0.05 0.04 0.06 0.05 0.04 0.03 0.03 0.04 0.06 0.06 0.04 0.03 0.03 0.02 0.02 0.01
0.10 0.14 0.16 0.15 0.13 0.07 0.04 0.03 0.03 0.05 0.04 0.03 0.03 0.04 0.04 0.05 0.05 0.06 0.10 0.11 0.09 0.08 0.09 0.11 0.12 0.10 0.10 0.09 0.05 0.05 0.04 0.02 0.02 0.02 0.02 0.03 0.04 0.05 0.04 0.03 0.03 0.02 0.01
0.13 0.15 0.12 0.11 0.13 0.08 0.04 0.03 0.03 0.04 0.05 0.03 0.02 0.04 0.05 0.05 0.05 0.06 0.09 0.10 0.09 0.09 0.10 0.11 0.11 0.09 0.09 0.07 0.05 0.05 0.03 0.02 0.01 0.02 0.02 0.02 0.01 0.02 0.03 0.05 0.04 0.03 0.02
0.13 0.12 0.12 0.08 0.06 0.06 0.04 0.03 0.02 0.03 0.03 0.02 0.02 0.03 0.05 0.05 0.04 0.06 0.08 0.07 0.05 0.07 0.09 0.09 0.10 0.10 0.09 0.07 0.04 0.03 0.02 0.02 0.02 0.02 0.01 0.01 0.01 0.01 0.01 0.01 0.02 0.02 0.02
0.06 0.08 0.09 0.07 0.05 0.04 0.02 0.01 0.02 0.02 0.01 0.01 0.02 0.02 0.02 0.03 0.04 0.05 0.05 0.05 0.05 0.06 0.06 0.06 0.06 0.06 0.07 0.07 0.04 0.03 0.03 0.03 0.01 0.01 0.01 0.01 0.02 0.02 0.01 0.01 0.01 0.01 0.01
0.05 0.07 0.06 0.05 0.03 0.03 0.02 0.02 0.02 0.02 0.02 0.01 0.02 0.02 0.02 0.03 0.04 0.04 0.04 0.05 0.06 0.05 0.05 0.04 0.04 0.03 0.04 0.04 0.04 0.04 0.04 0.03 0.02 0.01 0.01 0.01 0.02 0.02 0.02 0.03 0.02 0.02 0.02
0.05 0.06 0.05 0.03 0.03 0.03 0.03 0.03 0.04 0.03 0.02 0.02 0.02 0.02 0.03 0.03 0.03 0.03 0.05 0.06 0.05 0.05 0.06 0.06 0.05 0.04 0.04 0.03 0.03 0.03 0.04 0.03 0.02 0.02 0.02 0.03 0.03 0.02 0.02 0.02 0.02 0.02 0.01
0.08 0.06 0.06 0.04 0.03 0.03 0.03 0.02 0.03 0.03 0.03 0.03 0.03 0.03 0.03 0.03 0.03 0.03 0.05 0.07 0.07 0.05 0.06 0.05 0.05 0.04 0.04 0.04 0.04 0.03 0.03 0.02 0.02 0.02 0.01 0.01 0.01 0.01 0.01 0.02 0.02 0.02 0.01
0.09 0.09 0.08 0.07 0.04 0.03 0.03 0.03 0.02 0.03 0.02 0.02 0.03 0.03 0.03 0.03 0.04 0.05 0.05 0.05 0.07 0.07 0.06 0.05 0.04 0.03 0.03 0.03 0.03 0.03 0.03 0.03 0.03 0.03 0.01 0.01 0.01 0.01 0.01 0.01 0.01 0.01 0.01
MSLP
1005.84 1005.78 1005.77 1005.81 1005.88 1006.00 1006.18 1006.43 1006.77 1007.22 1007.77 1008.39 1009.06 1009.74 1010.38 1010.96 1011.46 1011.89 1012.25 1012.58 1012.91 1013.25 1013.64 1014.06 1014.52 1014.99 1015.45 1015.89 1016.30 1016.67 1017.02 1017.34 1017.66 1017.97 1018.26 1018.54 1018.79 1018.99 1019.13 1019.22 1019.27 1019.29 1019.32
1006.94 1006.80 1006.70 1006.62 1006.57 1006.55 1006.59 1006.72 1006.97 1007.34 1007.84 1008.42 1009.06 1009.70 1010.29 1010.81 1011.24 1011.59 1011.89 1012.16 1012.46 1012.79 1013.19 1013.65 1014.15 1014.66 1015.17 1015.65 1016.08 1016.47 1016.83 1017.17 1017.51 1017.86 1018.20 1018.53 1018.83 1019.07 1019.25 1019.35 1019.39 1019.40 1019.39
1008.38 1008.16 1007.95 1007.75 1007.55 1007.39 1007.28 1007.27 1007.40 1007.68 1008.09 1008.61 1009.19 1009.77 1010.30 1010.75 1011.11 1011.38 1011.60 1011.81 1012.06 1012.37 1012.76 1013.24 1013.76 1014.31 1014.85 1015.36 1015.82 1016.23 1016.62 1016.99 1017.36 1017.75 1018.14 1018.53 1018.88 1019.18 1019.39 1019.51 1019.56 1019.55 1019.51
1009.98 1009.67 1009.36 1009.03 1008.69 1008.38 1008.12 1007.97 1007.97 1008.13 1008.45 1008.88 1009.38 1009.89 1010.35 1010.73 1011.00 1011.20 1011.35 1011.50 1011.69 1011.97 1012.35 1012.82 1013.36 1013.93 1014.50 1015.03 1015.52 1015.97 1016.38 1016.78 1017.19 1017.62 1018.06 1018.50 1018.90 1019.24 1019.49 1019.64 1019.70 1019.68 1019.63
1011.53 1011.14 1010.73 1010.28 1009.82 1009.37 1008.98 1008.69 1008.56 1008.60 1008.80 1009.14 1009.56 1009.99 1010.37 1010.67 1010.88 1011.01 1011.09 1011.19 1011.33 1011.57 1011.93 1012.39 1012.93 1013.51 1014.10 1014.66 1015.18 1015.66 1016.11 1016.54 1016.98 1017.44 1017.92 1018.39 1018.83 1019.21 1019.49 1019.67 1019.75 1019.75 1019.69
1012.88 1012.41 1011.91 1011.38 1010.81 1010.24 1009.73 1009.32 1009.07 1008.99 1009.08 1009.32 1009.64 1009.99 1010.30 1010.54 1010.69 1010.76 1010.79 1010.84 1010.95 1011.15 1011.48 1011.93 1012.46 1013.05 1013.66 1014.24 1014.79 1015.30 1015.77 1016.24 1016.70 1017.18 1017.68 1018.17 1018.63 1019.03 1019.34 1019.56 1019.67 1019.70 1019.67
1013.90 1013.37 1012.81 1012.21 1011.57 1010.92 1010.31 1009.80 1009.44 1009.25 1009.23 1009.37 1009.60 1009.86 1010.10 1010.28 1010.38 1010.41 1010.41 1010.43 1010.51 1010.69 1011.00 1011.43 1011.96 1012.55 1013.17 1013.78 1014.35 1014.88 1015.38 1015.86 1016.34 1016.82 1017.31 1017.80 1018.27 1018.69 1019.03 1019.28 1019.44 1019.52 1019.55
1014.55 1014.00 1013.40 1012.76 1012.07 1011.37 1010.69 1010.09 1009.64 1009.35 1009.23 1009.26 1009.40 1009.58 1009.76 1009.89 1009.95 1009.96 1009.94 1009.95 1010.01 1010.19 1010.48 1010.90 1011.43 1012.03 1012.65 1013.27 1013.87 1014.42 1014.94 1015.42 1015.90 1016.37 1016.85 1017.33 1017.79 1018.21 1018.57 1018.87 1019.09 1019.25 1019.35
1014.89 1014.32 1013.72 1013.06 1012.35 1011.60 1010.87 1010.21 1009.67 1009.29 1009.07 1009.00 1009.04 1009.15 1009.26 1009.35 1009.39 1009.39 1009.38 1009.39 1009.46 1009.64 1009.94 1010.36 1010.89 1011.49 1012.13 1012.76 1013.37 1013.94 1014.47 1014.95 1015.42 1015.88 1016.33 1016.79 1017.23 1017.65 1018.04 1018.38 1018.68 1018.92 1019.11
1015.01 1014.44 1013.83 1013.17 1012.43 1011.66 1010.89 1010.17 1009.56 1009.08 1008.77 1008.59 1008.54 1008.56 1008.61 1008.67 1008.70 1008.71 1008.72 1008.76 1008.86 1009.07 1009.38 1009.82 1010.36 1010.97 1011.62 1012.27 1012.89 1013.47 1014.01 1014.50 1014.95 1015.39 1015.83 1016.25 1016.68 1017.10 1017.51 1017.90 1018.26 1018.58 1018.87
1015.03 1014.46 1013.84 1013.16 1012.40 1011.59 1010.78 1009.99 1009.30 1008.73 1008.31 1008.04 1007.89 1007.83 1007.82 1007.85 1007.88 1007.91 1007.96 1008.05 1008.21 1008.47 1008.83 1009.29 1009.86 1010.48 1011.15 1011.81 1012.45 1013.05 1013.59 1014.09 1014.54 1014.97 1015.38 1015.79 1016.20 1016.62 1017.05 1017.47 1017.88 1018.29 1018.67
1015.07 1014.47 1013.82 1013.10 1012.29 1011.43 1010.55 1009.70 1008.92 1008.25 1007.73 1007.35 1007.10 1006.96 1006.90 1006.90 1006.94 1007.01 1007.12 1007.28 1007.51 1007.83 1008.25 1008.77 1009.37 1010.03 1010.71 1011.39 1012.05 1012.67 1013.23 1013.73 1014.19 1014.62 1015.03 1015.43 1015.83 1016.25 1016.68 1017.13 1017.59 1018.04 1018.48
1015.20 1014.54 1013.82 1013.01 1012.13 1011.19 1010.23 1009.29 1008.42 1007.65 1007.02 1006.53 1006.18 1005.96 1005.86 1005.83 1005.89 1006.00 1006.18 1006.43 1006.75 1007.16 1007.66 1008.23 1008.88 1009.57 1010.28 1010.99 1011.66 1012.30 1012.87 1013.40 1013.88 1014.32 1014.73 1015.14 1015.55 1015.97 1016.40 1016.86 1017.34 1017.82 1018.30
1015.41 1014.66 1013.82 1012.91 1011.92 1010.88 1009.83 1008.79 1007.81 1006.94 1006.20 1005.61 1005.17 1004.88 1004.72 1004.68 1004.75 1004.91 1005.16 1005.50 1005.92 1006.43 1007.01 1007.66 1008.36 1009.09 1009.82 1010.55 1011.24 1011.89 1012.49 1013.04 1013.55 1014.01 1014.45 1014.87 1015.29 1015.72 1016.16 1016.62 1017.10 1017.59 1018.08
1015.67 1014.79 1013.82 1012.77 1011.66 1010.51 1009.35 1008.21 1007.14 1006.17 1005.34 1004.65 1004.12 1003.75 1003.55 1003.48 1003.57 1003.77 1004.09 1004.51 1005.03 1005.63 1006.30 1007.02 1007.77 1008.54 1009.29 1010.03 1010.74 1011.40 1012.02 1012.59 1013.13 1013.63 1014.10 1014.56 1015.00 1015.44 1015.89 1016.35 1016.82 1017.31 1017.79
1015.92 1014.89 1013.77 1012.59 1011.35 1010.09 1008.83 1007.61 1006.46 1005.41 1004.49 1003.72 1003.11 1002.67 1002.41 1002.33 1002.41 1002.64 1003.02 1003.51 1004.11 1004.80 1005.54 1006.31 1007.11 1007.89 1008.66 1009.40 1010.11 1010.78 1011.41 1012.01 1012.58 1013.11 1013.63 1014.13 1014.61 1015.07 1015.54 1016.00 1016.47 1016.94 1017.41
1016.08 1014.91 1013.66 1012.35 1011.02 1009.67 1008.34 1007.06 1005.85 1004.74 1003.75 1002.91 1002.23 1001.73 1001.41 1001.29 1001.35 1001.60 1002.00 1002.55 1003.20 1003.95 1004.74 1005.56 1006.37 1007.17 1007.94 1008.67 1009.36 1010.03 1010.66 1011.27 1011.87 1012.45 1013.01 1013.56 1014.08 1014.59 1015.08 1015.56 1016.02 1016.49 1016.95
1016.12 1014.84 1013.49 1012.10 1010.70 1009.31 1007.94 1006.63 1005.40 1004.26 1003.23 1002.33 1001.59 1001.02 1000.64 1000.46 1000.49 1000.71 1001.11 1001.67 1002.36 1003.13 1003.95 1004.79 1005.61 1006.40 1007.15 1007.86 1008.53 1009.17 1009.80 1010.42 1011.04 1011.66 1012.27 1012.87 1013.45 1014.00 1014.53 1015.03 1015.51 1015.98 1016.44
1016.04 1014.70 1013.31 1011.88 1010.46 1009.06 1007.71 1006.41 1005.18 1004.03 1002.97 1002.04 1001.24 1000.60 1000.15 999.90 999.87 1000.04 1000.42 1000.96 1001.63 1002.40 1003.22 1004.05 1004.86 1005.63 1006.35 1007.03 1007.67 1008.29 1008.91 1009.53 1010.16 1010.81 1011.47 1012.12 1012.75 1013.37 1013.94 1014.48 1014.99 1015.47 1015.93
1015.89 1014.55 1013.15 1011.75 1010.35 1009.00 1007.68 1006.42 1005.22 1004.08 1003.02 1002.05 1001.20 1000.50 999.97 999.64 999.52 999.62 999.93 1000.42 1001.05 1001.79 1002.58 1003.39 1004.17 1004.91 1005.60 1006.25 1006.86 1007.45 1008.05 1008.67 1009.32 1009.99 1010.68 1011.38 1012.07 1012.73 1013.36 1013.94 1014.48 1014.98 1015.45
1015.74 1014.43 1013.09 1011.74 1010.42 1009.13 1007.88 1006.68 1005.52 1004.41 1003.35 1002.36 1001.46 1000.69 1000.07 999.65 999.44 999.45 999.67 1000.08 1000.64 1001.32 1002.06 1002.82 1003.57 1004.28 1004.94 1005.55 1006.13 1006.70 1007.29 1007.90 1008.55 1009.24 1009.96 1010.69 1011.43 1012.14 1012.81 1013.43 1014.00 1014.53 1015.01
1015.63 1014.41 1013.15 1011.89 1010.65 1009.45 1008.28 1007.15 1006.04 1004.96 1003.91 1002.89 1001.95 1001.12 1000.42 999.90 999.58 999.48 999.60 999.91 1000.39 1000.99 1001.66 1002.37 1003.07 1003.74 1004.36 1004.94 1005.50 1006.05 1006.62 1007.22 1007.87 1008.57 1009.31 1010.07 1010.83 1011.58 1012.28 1012.94 1013.54 1014.09 1014.59
1015.63 1014.49 1013.33 1012.18 1011.03 1009.92 1008.83 1007.77 1006.71 1005.65 1004.61 1003.58 1002.61 1001.71 1000.94 1000.33 999.91 999.70 999.71 999.91 1000.28 1000.79 1001.38 1002.01 1002.65 1003.27 1003.85 1004.40 1004.93 1005.46 1006.01 1006.60 1007.24 1007.93 1008.67 1009.45 1010.23 1011.00 1011.73 1012.42 1013.04 1013.61 1014.13
1015.73 1014.70 1013.64 1012.58 1011.53 1010.49 1009.47 1008.46 1007.45 1006.42 1005.38 1004.35 1003.36 1002.42 1001.59 1000.90 1000.39 1000.08 999.97 1000.06 1000.32 1000.71 1001.20 1001.74 1002.30 1002.85 1003.38 1003.88 1004.37 1004.87 1005.39 1005.95 1006.58 1007.25 1007.99 1008.75 1009.54 1010.32 1011.07 1011.78 1012.43 1013.03 1013.56
1015.93 1015.00 1014.03 1013.05 1012.08 1011.11 1010.15 1009.18 1008.20 1007.20 1006.19 1005.17 1004.17 1003.21 1002.35 1001.60 1001.02 1000.62 1000.41 1000.38 1000.51 1000.78 1001.14 1001.57 1002.02 1002.47 1002.91 1003.35 1003.78 1004.22 1004.69 1005.22 1005.80 1006.45 1007.16 1007.91 1008.69 1009.47 1010.24 1010.97 1011.65 1012.28 1012.85
1016.21 1015.36 1014.47 1013.56 1012.65 1011.73 1010.82 1009.89 1008.95 1007.99 1007.01 1006.01 1005.03 1004.09 1003.22 1002.45 1001.82 1001.34 1001.04 1000.89 1000.89 1001.02 1001.23 1001.51 1001.83 1002.15 1002.47 1002.80 1003.14 1003.50 1003.90 1004.36 1004.88 1005.48 1006.15 1006.88 1007.64 1008.42 1009.19 1009.95 1010.67 1011.34 1011.95
Thickness
5803 5805 5803 5801 5796 5792 5789 5784 5780 5777 5774 5768 5763 5758 5755 5753 5751 5750 5749 5747 5745 5743 5742 5740 5738 5737 5735 5733 5731 5729 5726 5725 5725 5722 5720 5722 5724 5725 5726 5726 5726 5725 5724
5796 5797 5797 5795 5793 5789 5786 5782 5778 5775 5772 5768 5764 5759 5755 5751 5749 5748 5746 5745 5743 5741 5740 5738 5736 5735 5732 5730 5728 5726 5723 5722 5723 5718 5713 5710 5713 5719 5723 5722 5722 5721 5721
5793 5793 5792 5790 5789 5786 5783 5781 5776 5772 5770 5767 5761 5756 5751 5748 5745 5743 5742 5742 5741 5740 5738 5736 5734 5733 5731 5728 5726 5725 5722 5718 5719 5719 5714 5707 5705 5709 5714 5717 5718 5717 5716
5796 5792 5790 5788 5787 5786 5784 5779 5774 5770 5767 5763 5758 5753 5747 5743 5742 5740 5739 5739 5738 5737 5736 5734 5732 5730 5729 5726 5725 5724 5722 5719 5715 5716 5717 5715 5712 5705 5704 5709 5712 5713 5712
5793 5790 5789 5787 5786 5786 5782 5777 5772 5768 5765 5761 5757 5752 5747 5743 5741 5738 5736 5735 5735 5735 5733 5731 5730 5728 5726 5725 5723 5722 5721 5719 5716 5714 5713 5712 5711 5708 5702 5700 5704 5706 5708
5789 5787 5787 5786 5784 5781 5777 5773 5769 5764 5762 5758 5754 5750 5745 5741 5737 5735 5733 5732 5732 5731 5730 5729 5728 5726 5724 5723 5722 5721 5720 5718 5716 5715 5713 5711 5707 5705 5702 5699 5699 5699 5702
5783 5781 5779 5777 5777 5774 5771 5768 5764 5760 5758 5755 5751 5748 5744 5740 5736 5733 5731 5729 5728 5727 5727 5727 5725 5723 5722 5721 5720 5719 5717 5716 5715 5713 5712 5711 5710 5708 5705 5701 5698 5697 5698
5778 5777 5776 5774 5772 5770 5767 5764 5759 5755 5752 5750 5747 5745 5741 5738 5735 5733 5731 5729 5727 5726 5726 5724 5723 5721 5720 5719 5718 5716 5715 5714 5713 5712 5711 5710 5709 5708 5706 5702 5698 5693 5692
5771 5771 5771 5770 5768 5765 5763 5760 5756 5751 5748 5745 5742 5739 5737 5735 5733 5731 5730 5728 5727 5726 5724 5722 5720 5719 5717 5716 5715 5713 5711 5711 5710 5709 5708 5708 5707 5707 5705 5703 5701 5694 5688
5765 5764 5764 5765 5763 5760 5758 5756 5752 5746 5744 5742 5739 5736 5733 5731 5730 5729 5727 5725 5724 5723 5721 5719 5717 5716 5714 5713 5712 5710 5709 5707 5706 5706 5705 5705 5704 5703 5703 5701 5699 5697 5692
5759 5758 5757 5756 5756 5754 5751 5748 5746 5742 5739 5738 5735 5732 5730 5728 5726 5725 5724 5723 5721 5719 5717 5716 5714 5712 5711 5710 5708 5707 5706 5704 5703 5703 5702 5701 5701 5700 5699 5698 5696 5695 5692
5755 5754 5752 5749 5747 5746 5744 5741 5739 5737 5735 5734 5731 5728 5725 5723 5721 5721 5721 5720 5718 5716 5715 5713 5711 5709 5707 5706 5705 5704 5703 5701 5700 5699 5698 5697 5697 5695 5694 5693 5692 5691 5690
5749 5747 5745 5741 5739 5738 5737 5735 5734 5732 5731 5729 5726 5722 5720 5719 5717 5717 5717 5716 5714 5712 5711 5709 5707 5705 5704 5703 5702 5700 5699 5697 5696 5695 5694 5692 5692 5690 5689 5688 5687 5686 5686
5743 5741 5737 5735 5734 5732 5731 5730 5729 5728 5726 5723 5720 5717 5716 5714 5714 5713 5713 5712 5711 5709 5707 5706 5704 5702 5700 5699 5698 5696 5694 5692 5691 5691 5690 5689 5687 5685 5684 5683 5682 5681 5679
5736 5734 5732 5731 5729 5727 5726 5725 5724 5722 5721 5717 5714 5712 5712 5711 5710 5709 5709 5708 5707 5706 5703 5701 5700 5698 5696 5695 5693 5692 5690 5687 5686 5686 5685 5685 5684 5683 5681 5680 5677 5676 5673
5731 5730 5727 5726 5725 5725 5723 5720 5718 5717 5715 5712 5710 5709 5708 5707 5705 5704 5704 5703 5702 5700 5699 5697 5695 5693 5693 5691 5690 5689 5686 5684 5682 5681 5680 5680 5679 5678 5677 5677 5675 5673 5670
5726 5725 5723 5721 5720 5721 5721 5717 5715 5713 5710 5707 5706 5705 5703 5701 5700 5700 5699 5697 5696 5695 5693 5691 5690 5688 5688 5687 5686 5685 5683 5680 5678 5676 5675 5676 5675 5674 5672 5671 5670 5669 5668
5720 5719 5718 5717 5718 5717 5716 5715 5712 5709 5706 5703 5701 5700 5699 5698 5696 5694 5693 5692 5691 5689 5687 5685 5684 5683 5682 5682 5681 5680 5678 5675 5673 5672 5671 5669 5668 5669 5667 5665 5663 5662 5662
5715 5714 5714 5714 5713 5713 5712 5710 5706 5704 5701 5699 5698 5697 5696 5694 5692 5690 5688 5688 5686 5685 5683 5681 5679 5678 5677 5676 5676 5674 5672 5669 5668 5667 5666 5665 5663 5664 5663 5660 5657 5656 5656
5709 5707 5707 5708 5707 5708 5707 5703 5700 5697 5696 5695 5694 5694 5692 5690 5688 5686 5685 5684 5683 5681 5679 5677 5676 5674 5673 5672 5671 5670 5667 5664 5662 5661 5661 5660 5659 5658 5657 5655 5653 5651 5650
5704 5703 5701 5700 5701 5701 5701 5697 5694 5692 5693 5692 5691 5690 5688 5687 5685 5682 5681 5679 5678 5676 5674 5672 5671 5670 5670 5669 5667 5665 5662 5660 5657 5655 5655 5655 5655 5654 5653 5651 5649 5648 5647
5697 5697 5694 5693 5694 5695 5694 5691 5689 5689 5689 5688 5686 5684 5683 5683 5681 5678 5676 5675 5673 5670 5668 5666 5665 5665 5665 5664 5662 5661 5659 5657 5654 5652 5651 5651 5650 5649 5648 5646 5645 5644 5642
5690 5689 5688 5687 5688 5689 5689 5686 5685 5684 5683 5681 5680 5679 5679 5677 5676 5673 5671 5669 5667 5665 5663 5661 5660 5659 5659 5658 5657 5655 5654 5652 5650 5648 5648 5646 5645 5644 5642 5642 5640 5638 5635
5682 5683 5682 5681 5681 5683 5683 5681 5680 5679 5677 5675 5673 5673 5672 5670 5669 5668 5666 5664 5662 5660 5658 5656 5655 5654 5653 5652 5651 5649 5647 5645 5644 5642 5641 5641 5639 5638 5636 5635 5634 5632 5630
5675 5676 5676 5675 5675 5676 5676 5676 5675 5673 5670 5668 5667 5666 5666 5664 5662 5661 5659 5659 5658 5658 5656 5654 5651 5649 5647 5648 5648 5645 5642 5640 5638 5636 5634 5632 5630 5629 5628 5627 5626 5625 5624
5668 5668 5668 5668 5670 5670 5670 5669 5669 5667 5664 5661 5660 5659 5658 5657 5656 5654 5652 5653 5653 5653 5652 5651 5649 5647 5646 5644 5642 5640 5638 5635 5633 5629 5626 5624 5623 5622 5621 5620 5619 5619 5618